[[{"header":{"parameterUnit":"m.s-1","parameterCategory":1,"la1":30.2991,"la2":30.254,"lo1":-89.0895,"lo2":-89.0444,"dy":0.0017,"dx":0.0017,"nx":28,"ny":28,"refTime":"2023-08-02T09:00:00:Z","depth":0,"parameterNumber":2,"parameterNumberName":"U-component_of_WINDS"},"data":[0,0,0,0,0,0,0,0,0,0,0,0,0,0,0,0,0,0,0,0,0,0,0,0,0,0,0,0,0,0,0,0,0,0,0,0,0,0,0,0,0,0,0,0,0,0,0,0,0,0,0,0,0,0,0,0,0,0,-1.332,-1.3319,0,-1.3227,-1.3226,-1.3225,-1.3167,-1.3167,-1.3166,-1.3166,-1.3068,-1.3066,-1.3063,0,0,0,0,0,0,0,0,0,0,0,0,0,-1.3445,-1.3443,-1.332,-1.3319,-1.3318,-1.3228,-1.3226,-1.3225,-1.3167,-1.3167,-1.3166,-1.3166,-1.3069,-1.3066,-1.3063,0,0,0,0,0,0,0,0,0,0,0,0,0,-1.3376,-1.3443,-1.3321,-1.3278,-1.3274,-1.3228,-1.3226,-1.3225,-1.3167,-1.3167,-1.3166,-1.3166,-1.307,-1.3066,-1.3063,-1.3051,0,0,-1.3052,-1.3051,0,0,0,0,0,0,0,0,-1.338,-1.3371,-1.3286,-1.3281,-1.3276,-1.3208,-1.3234,-1.3166,-1.3167,-1.3207,-1.3166,-1.3165,-1.3115,-1.3108,-1.3091,-1.3046,-1.3042,-1.3052,-1.305,-1.3048,-1.3047,0,0,0,0,0,0,0,-1.3385,-1.3375,-1.3283,-1.3284,-1.3278,-1.3263,-1.3253,-1.3221,-1.3165,-1.3204,-1.3199,-1.3189,-1.3112,-1.3095,-1.3088,-1.3041,-1.3052,-1.3049,-1.3047,-1.3045,-1.2981,-1.2982,0,0,0,0,0,0,-1.3396,-1.3379,-1.3286,-1.3281,-1.3328,-1.3261,-1.325,-1.323,-1.3165,-1.3155,-1.319,-1.3187,-1.3101,-1.3092,-1.3085,-1.3066,-1.3048,-1.3045,-1.3043,-1.2981,-1.2981,-1.2982,0,0,0,0,0,0,-1.3399,-1.3389,-1.329,-1.3329,-1.3315,-1.326,-1.3238,-1.3229,-1.3211,-1.3154,-1.3144,-1.3183,-1.31,-1.309,-1.306,-1.3062,-1.3043,-1.304,-1.298,-1.2981,-1.2982,-1.3029,0,0,0,0,0,0,-1.3403,-1.339,-1.3385,-1.3329,-1.3313,-1.3268,-1.3239,-1.3227,-1.3206,-1.3201,-1.3145,-1.3135,-1.3099,-1.3065,-1.3056,-1.3057,-1.3038,-1.298,-1.2981,-1.2981,-1.3027,-1.3031,-1.3034,0,0,0,0,0,-1.3408,-1.3402,-1.3385,-1.3375,-1.3306,-1.3268,-1.3259,-1.3218,-1.3206,-1.3201,-1.3164,-1.3137,-1.3064,-1.3063,-1.3052,-1.3051,-1.298,-1.2981,-1.2981,-1.3025,-1.303,-1.3034,0,0,0,0,0,0,-1.3458,-1.3394,-1.3375,-1.335,-1.3315,-1.3258,-1.325,-1.3225,-1.3191,-1.3188,-1.3138,-1.3126,-1.3101,-1.3073,-1.3074,-1.3036,-1.3018,-1.3017,-1.3055,-1.3059,-1.3063,-1.307,-1.3035,0,0,0,0,0,-1.3467,-1.3442,-1.3387,-1.337,-1.3354,-1.3305,-1.3287,-1.3259,-1.322,-1.3204,-1.3166,-1.3128,-1.3097,-1.3077,-1.3045,-1.3023,-1.301,-1.3017,-1.3021,-1.3025,-1.3024,-1.301,-1.3012,-1.2985,-1.2985,-1.2985,0,0,-1.3484,-1.3446,-1.3433,-1.338,-1.3349,-1.3323,-1.3293,-1.3267,-1.3247,-1.32,-1.317,-1.314,-1.3095,-1.307,-1.3056,-1.3046,-1.3029,-1.3026,-1.3029,-1.3026,-1.3011,-1.3014,-1.3016,-1.2985,-1.2985,-1.2985,0,0,-1.3501,-1.3471,-1.3453,-1.3424,-1.3379,-1.3346,-1.3343,-1.3289,-1.3268,-1.3238,-1.3202,-1.3177,-1.3124,-1.3093,-1.3071,-1.3079,-1.3052,-1.307,-1.3089,-1.3076,-1.3078,-1.308,-1.3082,-1.3083,-1.3069,-1.3069,-1.3069,0,-1.3528,-1.3489,-1.3448,-1.3424,-1.3402,-1.336,-1.3341,-1.3314,-1.3261,-1.3246,-1.3235,-1.3168,-1.3135,-1.3101,-1.3103,-1.3087,-1.308,-1.3075,-1.3081,-1.3083,-1.3084,-1.3085,-1.3086,-1.3072,-1.3072,-1.3071,-1.3071,0,-1.3523,-1.3496,-1.3488,-1.3438,-1.3415,-1.3394,-1.335,-1.3331,-1.3306,-1.3275,-1.3244,-1.3203,-1.3162,-1.3152,-1.3126,-1.3115,-1.3109,-1.3091,-1.3071,-1.3089,-1.3089,-1.309,-1.3075,-1.3074,-1.3074,-1.3073,0,0,-1.3567,-1.3497,-1.3494,-1.3471,-1.3419,-1.3397,-1.3375,-1.3335,-1.332,-1.3285,-1.3264,-1.3221,-1.3204,-1.3178,-1.3149,-1.3138,-1.3146,-1.3121,-1.3119,-1.3126,-1.313,-1.3143,-1.3144,-1.3129,-1.3129,-1.3129,-1.3133,0,-1.3576,-1.3534,-1.3497,-1.3469,-1.3443,-1.3404,-1.3384,-1.3349,-1.332,-1.3294,-1.3261,-1.3231,-1.3212,-1.3196,-1.3183,-1.3148,-1.3146,-1.3147,-1.3108,-1.3107,-1.3119,-1.3144,-1.3158,-1.3164,-1.3133,-1.3133,-1.3133,0,-1.358,-1.3547,-1.3517,-1.3467,-1.3455,-1.3438,-1.3399,-1.3375,-1.3335,-1.3315,-1.3288,-1.3257,-1.3231,-1.3217,-1.3179,-1.3181,-1.3163,-1.3144,-1.3143,-1.3136,-1.312,-1.3137,-1.3165,-1.3165,-1.3133,-1.3133,-1.3133,0,-1.3614,-1.3563,-1.3538,-1.3519,-1.3461,-1.345,-1.3425,-1.3385,-1.3364,-1.333,-1.3316,-1.328,-1.3259,-1.3232,-1.3192,-1.3185,-1.3159,-1.3141,-1.3141,-1.3142,-1.3135,-1.3136,-1.3159,-1.3127,-1.3127,-1.3127,-1.3127,0,-1.3627,-1.3609,-1.3552,-1.3537,-1.3516,-1.3474,-1.3454,-1.3425,-1.339,-1.3368,-1.3332,-1.3312,-1.3262,-1.3235,-1.3205,-1.3178,-1.317,-1.3152,-1.3143,-1.3154,-1.3156,-1.314,-1.3138,-1.3127,-1.3127,-1.3127,-1.3127,0,-1.366,-1.3622,-1.3592,-1.354,-1.3527,-1.3513,-1.3468,-1.3451,-1.3421,-1.3393,-1.3384,-1.3336,-1.3304,-1.3263,-1.3216,-1.3196,-1.3172,-1.316,-1.3186,-1.3181,-1.3182,-1.3182,-1.3195,-1.3194,-1.3164,-1.3164,-1.3164,0,-1.367,-1.3656,-1.3603,-1.3586,-1.3562,-1.3535,-1.3514,-1.3472,-1.3452,-1.3406,-1.3394,-1.3359,-1.3328,-1.3278,-1.3238,-1.3203,-1.3189,-1.3196,-1.3183,-1.3195,-1.3188,-1.3188,-1.3186,-1.3199,-1.3199,-1.32,-1.32,0,-1.3691,-1.3673,-1.3644,-1.3609,-1.3585,-1.3555,-1.3523,-1.3511,-1.3463,-1.3441,-1.3408,-1.3384,-1.3338,-1.3303,-1.3263,-1.3237,-1.321,-1.3205,-1.3203,-1.3212,-1.3227,-1.3218,-1.3193,-1.3204,-1.3204,-1.3203,-1.3203,-1.3203,-1.3711,-1.3697,-1.3658,-1.3627,-1.3599,-1.357,-1.3552,-1.352,-1.3492,-1.3451,-1.3429,-1.3396,-1.3357,-1.33,-1.3275,-1.3248,-1.3238,-1.3236,-1.3234,-1.3234,-1.3237,-1.3233,-1.3241,-1.3241,-1.3241,-1.3241,-1.3241,0,-1.3729,-1.3702,-1.3675,-1.3632,-1.3608,-1.3587,-1.3551,-1.3532,-1.3504,-1.347,-1.3441,-1.3403,-1.3369,-1.3328,-1.3292,-1.3278,-1.3265,-1.327,-1.3269,-1.3264,-1.3248,-1.3253,-1.3281,-1.3281,-1.3281,-1.3281,-1.3281,-1.3281,-1.3735,-1.3709,-1.3687,-1.3647,-1.362,-1.3588,-1.3569,-1.3543,-1.3516,-1.3475,-1.3447,-1.3421,-1.3384,-1.3345,-1.3313,-1.3302,-1.3289,-1.3298,-1.3283,-1.3268,-1.3265,-1.3261,-1.3266,-1.3296,-1.3296,-1.33,-1.33,-1.33]},{"header":{"parameterUnit":"m.s-1","parameterCategory":1,"la1":30.2991,"la2":30.254,"lo1":-89.0895,"lo2":-89.0444,"dy":0.0017,"dx":0.0017,"nx":28,"ny":28,"refTime":"2023-08-02T09:00:00:Z","depth":0,"parameterNumber":3,"parameterNumberName":"V-component_of_WINDS"},"data":[0,0,0,0,0,0,0,0,0,0,0,0,0,0,0,0,0,0,0,0,0,0,0,0,0,0,0,0,0,0,0,0,0,0,0,0,0,0,0,0,0,0,0,0,0,0,0,0,0,0,0,0,0,0,0,0,0,0,3.4028,3.4029,0,3.41,3.4101,3.4101,3.4174,3.4175,3.4176,3.4177,3.4246,3.4247,3.4248,0,0,0,0,0,0,0,0,0,0,0,0,0,3.3951,3.3952,3.4028,3.4029,3.403,3.41,3.4101,3.4102,3.4174,3.4175,3.4177,3.4178,3.4246,3.4247,3.4248,0,0,0,0,0,0,0,0,0,0,0,0,0,3.3999,3.3952,3.4028,3.4075,3.4079,3.4099,3.4101,3.4102,3.4174,3.4175,3.4177,3.4178,3.4245,3.4246,3.4248,3.4226,0,0,3.4252,3.4252,0,0,0,0,0,0,0,0,3.3996,3.4002,3.4067,3.4071,3.4077,3.413,3.4099,3.4143,3.4173,3.4138,3.4177,3.4179,3.4206,3.421,3.422,3.4229,3.4232,3.4252,3.4253,3.4253,3.4254,0,0,0,0,0,0,0,3.3993,3.3999,3.4056,3.4068,3.4074,3.4091,3.4099,3.4107,3.4162,3.4141,3.4147,3.4154,3.4209,3.4219,3.4222,3.4233,3.4252,3.4253,3.4254,3.4255,3.4229,3.4227,0,0,0,0,0,0,3.3983,3.3996,3.4054,3.4058,3.404,3.4091,3.4101,3.4111,3.4162,3.4172,3.4153,3.4157,3.4216,3.4221,3.4225,3.4203,3.4253,3.4255,3.4255,3.423,3.4228,3.4227,0,0,0,0,0,0,3.3981,3.3987,3.4051,3.4029,3.4038,3.4091,3.4102,3.4112,3.4122,3.4172,3.4181,3.4153,3.4217,3.4223,3.4226,3.4207,3.4255,3.4256,3.4232,3.4229,3.4227,3.4159,0,0,0,0,0,0,3.3979,3.3986,3.3979,3.4028,3.4039,3.4051,3.4101,3.4112,3.4125,3.4131,3.4175,3.4183,3.4219,3.4223,3.4227,3.4209,3.4258,3.4234,3.4231,3.4228,3.4163,3.4155,3.4148,0,0,0,0,0,3.3976,3.3956,3.3979,3.3985,3.4032,3.405,3.4056,3.4099,3.4123,3.4116,3.4148,3.4182,3.4209,3.4223,3.4228,3.421,3.4235,3.4232,3.4228,3.4167,3.4156,3.4148,0,0,0,0,0,0,3.3901,3.3963,3.3989,3.3985,3.4012,3.4062,3.4055,3.4087,3.4106,3.4111,3.4162,3.4172,3.4168,3.419,3.4205,3.4192,3.4227,3.4224,3.4178,3.4169,3.4161,3.4155,3.4259,0,0,0,0,0,3.3885,3.3896,3.3949,3.394,3.3953,3.4001,3.4011,3.4042,3.4071,3.4082,3.4115,3.414,3.4155,3.4163,3.4179,3.4167,3.4178,3.4158,3.415,3.4143,3.414,3.4135,3.4127,3.4216,3.4216,3.4216,0,0,3.385,3.3885,3.3889,3.3926,3.3951,3.396,3.401,3.4018,3.4025,3.4083,3.4088,3.4112,3.4145,3.414,3.414,3.4158,3.4118,3.4139,3.4133,3.4134,3.4131,3.4123,3.4115,3.4213,3.4214,3.4214,0,0,3.3792,3.382,3.3816,3.384,3.3878,3.391,3.3909,3.3956,3.3975,3.3981,3.4025,3.4034,3.4057,3.4079,3.4093,3.4045,3.4076,3.4048,3.4007,3.4002,3.3995,3.3989,3.3971,3.3964,3.4045,3.4045,3.4045,0,3.3743,3.3761,3.3809,3.3815,3.383,3.3885,3.3881,3.3902,3.3942,3.395,3.3971,3.4003,3.4029,3.403,3.4018,3.4028,3.4028,3.4043,3.3992,3.3987,3.3982,3.3966,3.3959,3.4041,3.4042,3.4042,3.4042,0,3.3699,3.371,3.3703,3.3742,3.3756,3.3756,3.3805,3.3813,3.3843,3.3873,3.3879,3.3912,3.3936,3.3939,3.3967,3.3944,3.3955,3.3983,3.4018,3.3969,3.3954,3.3949,3.4036,3.4037,3.4038,3.4039,0,0,3.3594,3.3662,3.3658,3.3677,3.3723,3.3732,3.3735,3.3761,3.3767,3.3793,3.3796,3.3816,3.3843,3.3859,3.3891,3.3886,3.3846,3.3916,3.3917,3.3901,3.3822,3.38,3.3792,3.3868,3.3867,3.3866,3.3819,0,3.3543,3.3553,3.3598,3.3595,3.3605,3.3659,3.3662,3.369,3.3719,3.3731,3.3763,3.3776,3.3811,3.3821,3.3819,3.3851,3.3831,3.3855,3.387,3.387,3.386,3.3785,3.3761,3.3715,3.3814,3.3813,3.3813,0,3.3484,3.3509,3.3507,3.3554,3.356,3.3562,3.3589,3.3601,3.3634,3.3655,3.3674,3.371,3.3716,3.375,3.3758,3.3774,3.3783,3.38,3.3799,3.3801,3.3838,3.3784,3.3702,3.3694,3.3804,3.3805,3.3805,0,3.3407,3.344,3.3443,3.3458,3.3513,3.3513,3.3535,3.357,3.3583,3.3607,3.3615,3.3638,3.3651,3.3667,3.3709,3.373,3.3712,3.3749,3.3729,3.3728,3.3722,3.3721,3.3638,3.3728,3.3729,3.3729,3.3729,0,3.3345,3.3341,3.341,3.3411,3.3409,3.3461,3.3456,3.3484,3.3515,3.3522,3.357,3.3576,3.3631,3.3643,3.3675,3.3677,3.3682,3.3699,3.3707,3.3694,3.3692,3.37,3.3704,3.3727,3.3727,3.3728,3.3728,0,3.3258,3.3304,3.3311,3.3363,3.3377,3.3372,3.3417,3.342,3.3453,3.3462,3.3467,3.3517,3.3534,3.3577,3.3604,3.3627,3.3619,3.3635,3.3608,3.3613,3.359,3.3591,3.3509,3.3501,3.3596,3.3595,3.3594,0,3.3215,3.3214,3.3267,3.3276,3.3298,3.3312,3.3326,3.3377,3.3389,3.3427,3.3426,3.3447,3.3466,3.349,3.3528,3.3549,3.3566,3.3536,3.3569,3.3557,3.3565,3.3565,3.3565,3.3528,3.3527,3.3526,3.3525,0,3.3133,3.3156,3.3175,3.3202,3.3218,3.3241,3.3267,3.3272,3.3329,3.334,3.3359,3.3374,3.3403,3.3423,3.3451,3.3473,3.3508,3.3514,3.3511,3.3497,3.3481,3.3489,3.3587,3.3516,3.3516,3.3517,3.3518,3.3518,3.3067,3.3068,3.3107,3.3126,3.3152,3.3175,3.3182,3.3216,3.3233,3.3261,3.329,3.3306,3.334,3.3381,3.3401,3.3413,3.3431,3.3426,3.3424,3.3422,3.3416,3.348,3.3418,3.3419,3.3419,3.3419,3.3419,0,3.2987,3.3015,3.3033,3.3069,3.3084,3.3118,3.3149,3.3159,3.3173,3.3202,3.3221,3.3243,3.3263,3.3303,3.3327,3.3329,3.3345,3.3333,3.3333,3.3337,3.3399,3.3399,3.3319,3.3319,3.3319,3.3319,3.3319,3.3319,3.2947,3.2953,3.298,3.2999,3.3027,3.3043,3.3058,3.308,3.3104,3.3126,3.3144,3.3171,3.3205,3.3232,3.3251,3.3263,3.3269,3.3251,3.3267,3.3323,3.3333,3.3342,3.3343,3.3252,3.3252,3.3205,3.3205,3.3204]}]]